Year,Month,Day,Hour,Minute,Value (Times are PST for temperature in C)
2021,06,26,00,00,20.20
2021,06,26,00,01,20.10
2021,06,26,00,02,20.10
2021,06,26,00,03,20.10
2021,06,26,00,04,20.10
2021,06,26,00,05,20.10
2021,06,26,00,06,20.10
2021,06,26,00,07,20.10
2021,06,26,00,08,20.10
2021,06,26,00,09,20.10
2021,06,26,00,10,20.10
2021,06,26,00,11,20.10
2021,06,26,00,12,20.10
2021,06,26,00,13,20.10
2021,06,26,00,14,20.10
2021,06,26,00,15,20.10
2021,06,26,00,16,20.10
2021,06,26,00,17,20.10
2021,06,26,00,18,20.00
2021,06,26,00,19,20.00
2021,06,26,00,20,20.00
2021,06,26,00,21,20.00
2021,06,26,00,22,20.00
2021,06,26,00,23,20.00
2021,06,26,00,24,20.00
2021,06,26,00,25,20.00
2021,06,26,00,26,20.00
2021,06,26,00,27,20.00
2021,06,26,00,28,20.00
2021,06,26,00,29,20.00
2021,06,26,00,30,20.00
2021,06,26,00,31,20.00
2021,06,26,00,32,20.00
2021,06,26,00,33,19.90
2021,06,26,00,34,20.00
2021,06,26,00,35,20.00
2021,06,26,00,36,20.00
2021,06,26,00,37,20.00
2021,06,26,00,38,20.00
2021,06,26,00,39,20.00
2021,06,26,00,40,20.00
2021,06,26,00,41,20.00
2021,06,26,00,42,20.10
2021,06,26,00,43,20.10
2021,06,26,00,44,20.10
2021,06,26,00,45,20.10
2021,06,26,00,46,20.10
2021,06,26,00,47,20.20
2021,06,26,00,48,20.20
2021,06,26,00,49,20.20
2021,06,26,00,50,20.20
2021,06,26,00,51,20.30
2021,06,26,00,52,20.30
2021,06,26,00,53,20.30
2021,06,26,00,54,20.30
2021,06,26,00,55,20.30
2021,06,26,00,56,20.30
2021,06,26,00,57,20.40
2021,06,26,00,58,20.40
2021,06,26,00,59,20.40
2021,06,26,01,00,20.40
2021,06,26,01,01,20.40
2021,06,26,01,02,20.50
2021,06,26,01,03,20.60
2021,06,26,01,04,20.70
2021,06,26,01,05,20.80
2021,06,26,01,06,20.80
2021,06,26,01,07,20.90
2021,06,26,01,08,20.90
2021,06,26,01,09,21.00
2021,06,26,01,10,21.00
2021,06,26,01,11,21.00
2021,06,26,01,12,21.00
2021,06,26,01,13,21.00
2021,06,26,01,14,21.00
2021,06,26,01,15,21.00
2021,06,26,01,16,21.00
2021,06,26,01,17,21.10
2021,06,26,01,18,21.10
2021,06,26,01,19,21.10
2021,06,26,01,20,21.10
2021,06,26,01,21,21.20
2021,06,26,01,22,21.20
2021,06,26,01,23,21.20
2021,06,26,01,24,21.20
2021,06,26,01,25,21.30
2021,06,26,01,26,21.30
2021,06,26,01,27,21.30
2021,06,26,01,28,21.30
2021,06,26,01,29,21.30
2021,06,26,01,30,21.20
2021,06,26,01,31,21.20
2021,06,26,01,32,21.20
2021,06,26,01,33,21.20
2021,06,26,01,34,21.20
2021,06,26,01,35,21.30
2021,06,26,01,36,21.30
2021,06,26,01,37,21.40
2021,06,26,01,38,21.40
2021,06,26,01,39,21.50
2021,06,26,01,40,21.60
2021,06,26,01,41,21.80
2021,06,26,01,42,22.00
2021,06,26,01,43,22.10
2021,06,26,01,44,22.30
2021,06,26,01,45,22.40
2021,06,26,01,46,22.60
2021,06,26,01,47,22.60
2021,06,26,01,48,22.70
2021,06,26,01,49,22.80
2021,06,26,01,50,22.80
2021,06,26,01,51,22.80
2021,06,26,01,52,22.90
2021,06,26,01,53,23.00
2021,06,26,01,54,23.00
2021,06,26,01,55,22.90
2021,06,26,01,56,22.90
2021,06,26,01,57,22.90
2021,06,26,01,58,22.80
2021,06,26,01,59,22.70
2021,06,26,02,00,22.70
2021,06,26,02,01,22.70
2021,06,26,02,02,22.70
2021,06,26,02,03,22.70
2021,06,26,02,04,22.70
2021,06,26,02,05,22.80
2021,06,26,02,06,22.80
2021,06,26,02,07,23.00
2021,06,26,02,08,23.10
2021,06,26,02,09,23.20
2021,06,26,02,10,23.20
2021,06,26,02,11,23.30
2021,06,26,02,12,23.30
2021,06,26,02,13,23.30
2021,06,26,02,14,23.20
2021,06,26,02,15,23.20
2021,06,26,02,16,23.20
2021,06,26,02,17,23.10
2021,06,26,02,18,23.10
2021,06,26,02,19,23.10
2021,06,26,02,20,23.10
2021,06,26,02,21,23.10
2021,06,26,02,22,23.10
2021,06,26,02,23,23.10
2021,06,26,02,24,23.10
2021,06,26,02,25,23.20
2021,06,26,02,26,23.20
2021,06,26,02,27,23.20
2021,06,26,02,28,23.20
2021,06,26,02,29,23.20
2021,06,26,02,30,23.20
2021,06,26,02,31,23.20
2021,06,26,02,32,23.20
2021,06,26,02,33,23.20
2021,06,26,02,34,23.20
2021,06,26,02,35,23.20
2021,06,26,02,36,23.10
2021,06,26,02,37,23.10
2021,06,26,02,38,23.10
2021,06,26,02,39,23.10
2021,06,26,02,40,23.10
2021,06,26,02,41,23.00
2021,06,26,02,42,22.90
2021,06,26,02,43,22.90
2021,06,26,02,44,22.90
2021,06,26,02,45,22.80
2021,06,26,02,46,22.80
2021,06,26,02,47,22.80
2021,06,26,02,48,22.70
2021,06,26,02,49,22.70
2021,06,26,02,50,22.60
2021,06,26,02,51,22.60
2021,06,26,02,52,22.60
2021,06,26,02,53,22.60
2021,06,26,02,54,22.50
2021,06,26,02,55,22.50
2021,06,26,02,56,22.40
2021,06,26,02,57,22.40
2021,06,26,02,58,22.40
2021,06,26,02,59,22.30
2021,06,26,03,00,22.30
2021,06,26,03,01,22.30
2021,06,26,03,02,22.30
2021,06,26,03,03,22.30
2021,06,26,03,04,22.40
2021,06,26,03,05,22.50
2021,06,26,03,06,22.50
2021,06,26,03,07,22.50
2021,06,26,03,08,22.50
2021,06,26,03,09,22.60
2021,06,26,03,10,22.70
2021,06,26,03,11,22.80
2021,06,26,03,12,22.90
2021,06,26,03,13,23.00
2021,06,26,03,14,23.00
2021,06,26,03,15,23.10
2021,06,26,03,16,23.20
2021,06,26,03,17,23.30
2021,06,26,03,18,23.30
2021,06,26,03,19,23.40
2021,06,26,03,20,23.40
2021,06,26,03,21,23.30
2021,06,26,03,22,23.30
2021,06,26,03,23,23.30
2021,06,26,03,24,23.30
2021,06,26,03,25,23.30
2021,06,26,03,26,23.30
2021,06,26,03,27,23.30
2021,06,26,03,28,23.20
2021,06,26,03,29,23.20
2021,06,26,03,30,23.20
2021,06,26,03,31,23.20
2021,06,26,03,32,23.10
2021,06,26,03,33,23.10
2021,06,26,03,34,23.00
2021,06,26,03,35,23.00
2021,06,26,03,36,23.00
2021,06,26,03,37,22.90
2021,06,26,03,38,22.90
2021,06,26,03,39,22.90
2021,06,26,03,40,22.90
2021,06,26,03,41,22.90
2021,06,26,03,42,22.90
2021,06,26,03,43,22.90
2021,06,26,03,44,22.90
2021,06,26,03,45,22.80
2021,06,26,03,46,22.80
2021,06,26,03,47,22.80
2021,06,26,03,48,22.80
2021,06,26,03,49,22.80
2021,06,26,03,50,22.80
2021,06,26,03,51,22.80
2021,06,26,03,52,22.80
2021,06,26,03,53,22.80
2021,06,26,03,54,22.70
2021,06,26,03,55,22.70
2021,06,26,03,56,22.60
2021,06,26,03,57,22.60
2021,06,26,03,58,22.50
2021,06,26,03,59,22.50
2021,06,26,04,00,22.40
2021,06,26,04,01,22.40
2021,06,26,04,02,22.30
2021,06,26,04,03,22.30
2021,06,26,04,04,22.20
2021,06,26,04,05,22.20
2021,06,26,04,06,22.20
2021,06,26,04,07,22.20
2021,06,26,04,08,22.20
2021,06,26,04,09,22.10
2021,06,26,04,10,22.20
2021,06,26,04,11,22.20
2021,06,26,04,12,22.20
2021,06,26,04,13,22.20
2021,06,26,04,14,22.20
2021,06,26,04,15,22.10
2021,06,26,04,16,22.10
2021,06,26,04,17,22.00
2021,06,26,04,18,22.00
2021,06,26,04,19,21.90
2021,06,26,04,20,21.90
2021,06,26,04,21,21.80
2021,06,26,04,22,21.80
2021,06,26,04,23,21.70
2021,06,26,04,24,21.70
2021,06,26,04,25,21.70
2021,06,26,04,26,21.70
2021,06,26,04,27,21.70
2021,06,26,04,28,21.70
2021,06,26,04,29,21.60
2021,06,26,04,30,21.60
2021,06,26,04,31,21.50
2021,06,26,04,32,21.50
2021,06,26,04,33,21.40
2021,06,26,04,34,21.40
2021,06,26,04,35,21.30
2021,06,26,04,36,21.30
2021,06,26,04,37,21.30
2021,06,26,04,38,21.20
2021,06,26,04,39,21.20
2021,06,26,04,40,21.20
2021,06,26,04,41,21.20
2021,06,26,04,42,21.20
2021,06,26,04,43,21.10
2021,06,26,04,44,21.20
2021,06,26,04,45,21.20
2021,06,26,04,46,21.20
2021,06,26,04,47,21.20
2021,06,26,04,48,21.20
2021,06,26,04,49,21.20
2021,06,26,04,50,21.30
2021,06,26,04,51,21.30
2021,06,26,04,52,21.40
2021,06,26,04,53,21.40
2021,06,26,04,54,21.40
2021,06,26,04,55,21.40
2021,06,26,04,56,21.40
2021,06,26,04,57,21.40
2021,06,26,04,58,21.30
2021,06,26,04,59,21.30
2021,06,26,05,00,21.20
2021,06,26,05,01,21.20
2021,06,26,05,02,21.10
2021,06,26,05,03,21.10
2021,06,26,05,04,21.00
2021,06,26,05,05,21.00
2021,06,26,05,06,21.00
2021,06,26,05,07,21.00
2021,06,26,05,08,20.90
2021,06,26,05,09,20.90
2021,06,26,05,10,20.90
2021,06,26,05,11,20.90
2021,06,26,05,12,20.90
2021,06,26,05,13,20.80
2021,06,26,05,14,20.80
2021,06,26,05,15,20.90
2021,06,26,05,16,20.90
2021,06,26,05,17,20.90
2021,06,26,05,18,20.90
2021,06,26,05,19,20.90
2021,06,26,05,20,20.90
2021,06,26,05,21,21.00
2021,06,26,05,22,21.00
2021,06,26,05,23,21.00
2021,06,26,05,24,21.10
2021,06,26,05,25,21.10
2021,06,26,05,26,21.10
2021,06,26,05,27,21.10
2021,06,26,05,28,21.10
2021,06,26,05,29,21.20
2021,06,26,05,30,21.20
2021,06,26,05,31,21.20
2021,06,26,05,32,21.20
2021,06,26,05,33,21.20
2021,06,26,05,34,21.20
2021,06,26,05,35,21.20
2021,06,26,05,36,21.20
2021,06,26,05,37,21.30
2021,06,26,05,38,21.30
2021,06,26,05,39,21.30
2021,06,26,05,40,21.30
2021,06,26,05,41,21.30
2021,06,26,05,42,21.20
2021,06,26,05,43,21.20
2021,06,26,05,44,21.20
2021,06,26,05,45,21.20
2021,06,26,05,46,21.20
2021,06,26,05,47,21.20
2021,06,26,05,48,21.20
2021,06,26,05,49,21.30
2021,06,26,05,50,21.30
2021,06,26,05,51,21.20
2021,06,26,05,52,21.20
2021,06,26,05,53,21.20
2021,06,26,05,54,21.20
2021,06,26,05,55,21.10
2021,06,26,05,56,21.10
2021,06,26,05,57,21.00
2021,06,26,05,58,21.00
2021,06,26,05,59,20.90
2021,06,26,06,00,20.90
2021,06,26,06,01,20.90
2021,06,26,06,02,20.90
2021,06,26,06,03,20.90
2021,06,26,06,04,20.90
2021,06,26,06,05,20.90
2021,06,26,06,06,20.90
2021,06,26,06,07,20.90
2021,06,26,06,08,21.00
2021,06,26,06,09,21.00
2021,06,26,06,10,21.10
2021,06,26,06,11,21.10
2021,06,26,06,12,21.20
2021,06,26,06,13,21.20
2021,06,26,06,14,21.20
2021,06,26,06,15,21.20
2021,06,26,06,16,21.30
2021,06,26,06,17,21.30
2021,06,26,06,18,21.30
2021,06,26,06,19,21.30
2021,06,26,06,20,21.30
2021,06,26,06,21,21.30
2021,06,26,06,22,21.30
2021,06,26,06,23,21.20
2021,06,26,06,24,21.20
2021,06,26,06,25,21.20
2021,06,26,06,26,21.20
2021,06,26,06,27,21.20
2021,06,26,06,28,21.20
2021,06,26,06,29,21.20
2021,06,26,06,30,21.20
2021,06,26,06,31,21.20
2021,06,26,06,32,21.20
2021,06,26,06,33,21.20
2021,06,26,06,34,21.10
2021,06,26,06,35,21.10
2021,06,26,06,36,21.10
2021,06,26,06,37,21.10
2021,06,26,06,38,21.10
2021,06,26,06,39,21.10
2021,06,26,06,40,21.10
2021,06,26,06,41,21.10
2021,06,26,06,42,21.10
2021,06,26,06,43,21.10
2021,06,26,06,44,21.00
2021,06,26,06,45,21.00
2021,06,26,06,46,21.00
2021,06,26,06,47,20.90
2021,06,26,06,48,20.90
2021,06,26,06,49,21.00
2021,06,26,06,50,21.00
2021,06,26,06,51,21.00
2021,06,26,06,52,21.00
2021,06,26,06,53,21.00
2021,06,26,06,54,21.10
2021,06,26,06,55,21.10
2021,06,26,06,56,21.10
2021,06,26,06,57,21.10
2021,06,26,06,58,21.00
2021,06,26,06,59,21.00
2021,06,26,07,00,21.00
2021,06,26,07,01,21.00
2021,06,26,07,02,21.00
2021,06,26,07,03,21.00
2021,06,26,07,04,21.00
2021,06,26,07,05,21.10
2021,06,26,07,06,21.10
2021,06,26,07,07,21.10
2021,06,26,07,08,21.20
2021,06,26,07,09,21.20
2021,06,26,07,10,21.20
2021,06,26,07,11,21.30
2021,06,26,07,12,21.30
2021,06,26,07,13,21.40
2021,06,26,07,14,21.40
2021,06,26,07,15,21.40
2021,06,26,07,16,21.50
2021,06,26,07,17,21.50
2021,06,26,07,18,21.50
2021,06,26,07,19,21.60
2021,06,26,07,20,21.60
2021,06,26,07,21,21.60
2021,06,26,07,22,21.60
2021,06,26,07,23,21.60
2021,06,26,07,24,21.70
2021,06,26,07,25,21.70
2021,06,26,07,26,21.80
2021,06,26,07,27,21.80
2021,06,26,07,28,21.90
2021,06,26,07,29,21.90
2021,06,26,07,30,21.90
2021,06,26,07,31,22.00
2021,06,26,07,32,22.10
2021,06,26,07,33,22.20
2021,06,26,07,34,22.20
2021,06,26,07,35,22.30
2021,06,26,07,36,22.30
2021,06,26,07,37,22.40
2021,06,26,07,38,22.40
2021,06,26,07,39,22.40
2021,06,26,07,40,22.40
2021,06,26,07,41,22.50
2021,06,26,07,42,22.50
2021,06,26,07,43,22.60
2021,06,26,07,44,22.60
2021,06,26,07,45,22.60
2021,06,26,07,46,22.60
2021,06,26,07,47,22.60
2021,06,26,07,48,22.60
2021,06,26,07,49,22.70
2021,06,26,07,50,22.70
2021,06,26,07,51,22.70
2021,06,26,07,52,22.70
2021,06,26,07,53,22.80
2021,06,26,07,54,22.80
2021,06,26,07,55,22.80
2021,06,26,07,56,22.90
2021,06,26,07,57,22.90
2021,06,26,07,58,23.00
2021,06,26,07,59,23.00
2021,06,26,08,00,23.10
2021,06,26,08,01,23.10
2021,06,26,08,02,23.10
2021,06,26,08,03,23.20
2021,06,26,08,04,23.20
2021,06,26,08,05,23.20
2021,06,26,08,06,23.20
2021,06,26,08,07,23.30
2021,06,26,08,08,23.30
2021,06,26,08,09,23.30
2021,06,26,08,10,23.30
2021,06,26,08,11,23.30
2021,06,26,08,12,23.30
2021,06,26,08,13,23.30
2021,06,26,08,14,23.30
2021,06,26,08,15,23.30
2021,06,26,08,16,23.30
2021,06,26,08,17,23.40
2021,06,26,08,18,23.40
2021,06,26,08,19,23.40
2021,06,26,08,20,23.40
2021,06,26,08,21,23.50
2021,06,26,08,22,23.50
2021,06,26,08,23,23.50
2021,06,26,08,24,23.50
2021,06,26,08,25,23.60
2021,06,26,08,26,23.60
2021,06,26,08,27,23.60
2021,06,26,08,28,23.60
2021,06,26,08,29,23.70
2021,06,26,08,30,23.70
2021,06,26,08,31,23.70
2021,06,26,08,32,23.70
2021,06,26,08,33,23.70
2021,06,26,08,34,23.70
2021,06,26,08,35,23.70
2021,06,26,08,36,23.80
2021,06,26,08,37,23.80
2021,06,26,08,38,23.80
2021,06,26,08,39,23.80
2021,06,26,08,40,23.80
2021,06,26,08,41,23.80
2021,06,26,08,42,23.80
2021,06,26,08,43,23.90
2021,06,26,08,44,23.90
2021,06,26,08,45,23.90
2021,06,26,08,46,23.90
2021,06,26,08,47,24.00
2021,06,26,08,48,24.00
2021,06,26,08,49,24.00
2021,06,26,08,50,24.00
2021,06,26,08,51,24.00
2021,06,26,08,52,24.00
2021,06,26,08,53,24.10
2021,06,26,08,54,24.10
2021,06,26,08,55,24.10
2021,06,26,08,56,24.10
2021,06,26,08,57,24.10
2021,06,26,08,58,24.10
2021,06,26,08,59,24.10
2021,06,26,09,00,24.10
2021,06,26,09,01,24.10
2021,06,26,09,02,24.20
2021,06,26,09,03,24.20
2021,06,26,09,04,24.20
2021,06,26,09,05,24.30
2021,06,26,09,06,24.30
2021,06,26,09,07,24.30
2021,06,26,09,08,24.30
2021,06,26,09,09,24.40
2021,06,26,09,10,24.40
2021,06,26,09,11,24.40
2021,06,26,09,12,24.50
2021,06,26,09,13,24.50
2021,06,26,09,14,24.60
2021,06,26,09,15,24.60
2021,06,26,09,16,24.70
2021,06,26,09,17,24.70
2021,06,26,09,18,24.80
2021,06,26,09,19,24.80
2021,06,26,09,20,24.90
2021,06,26,09,21,24.90
2021,06,26,09,22,25.00
2021,06,26,09,23,25.10
2021,06,26,09,24,25.10
2021,06,26,09,25,25.20
2021,06,26,09,26,25.20
2021,06,26,09,27,25.30
2021,06,26,09,28,25.30
2021,06,26,09,29,25.40
2021,06,26,09,30,25.50
2021,06,26,09,31,25.50
2021,06,26,09,32,25.60
2021,06,26,09,33,25.60
2021,06,26,09,34,25.60
2021,06,26,09,35,25.60
2021,06,26,09,36,25.60
2021,06,26,09,37,25.60
2021,06,26,09,38,25.60
2021,06,26,09,39,25.60
2021,06,26,09,40,25.60
2021,06,26,09,41,25.50
2021,06,26,09,42,25.40
2021,06,26,09,43,25.30
2021,06,26,09,44,25.30
2021,06,26,09,45,25.30
2021,06,26,09,46,25.30
2021,06,26,09,47,25.30
2021,06,26,09,48,25.30
2021,06,26,09,49,25.30
2021,06,26,09,50,25.40
2021,06,26,09,51,25.40
2021,06,26,09,52,25.40
2021,06,26,09,53,25.50
2021,06,26,09,54,25.50
2021,06,26,09,55,25.60
2021,06,26,09,56,25.50
2021,06,26,09,57,25.40
2021,06,26,09,58,25.40
2021,06,26,09,59,25.40
2021,06,26,10,00,25.40
2021,06,26,10,01,25.40
2021,06,26,10,02,25.40
2021,06,26,10,03,25.40
2021,06,26,10,04,25.30
2021,06,26,10,05,25.30
2021,06,26,10,06,25.30
2021,06,26,10,07,25.30
2021,06,26,10,08,25.30
2021,06,26,10,09,25.40
2021,06,26,10,10,25.40
2021,06,26,10,11,25.50
2021,06,26,10,12,25.50
2021,06,26,10,13,25.50
2021,06,26,10,14,25.60
2021,06,26,10,15,25.60
2021,06,26,10,16,25.60
2021,06,26,10,17,25.60
2021,06,26,10,18,25.60
2021,06,26,10,19,25.60
2021,06,26,10,20,25.70
2021,06,26,10,21,25.70
2021,06,26,10,22,25.80
2021,06,26,10,23,25.80
2021,06,26,10,24,25.80
2021,06,26,10,25,25.80
2021,06,26,10,26,25.80
2021,06,26,10,27,25.80
2021,06,26,10,28,25.80
2021,06,26,10,29,25.80
2021,06,26,10,30,25.80
2021,06,26,10,31,25.90
2021,06,26,10,32,25.90
2021,06,26,10,33,25.90
2021,06,26,10,34,25.90
2021,06,26,10,35,25.80
2021,06,26,10,36,25.80
2021,06,26,10,37,25.80
2021,06,26,10,38,25.80
2021,06,26,10,39,25.80
2021,06,26,10,40,25.80
2021,06,26,10,41,25.80
2021,06,26,10,42,25.80
2021,06,26,10,43,25.90
2021,06,26,10,44,26.00
2021,06,26,10,45,26.00
2021,06,26,10,46,26.10
2021,06,26,10,47,26.20
2021,06,26,10,48,26.30
2021,06,26,10,49,26.30
2021,06,26,10,50,26.30
2021,06,26,10,51,26.30
2021,06,26,10,52,26.30
2021,06,26,10,53,26.30
2021,06,26,10,54,26.30
2021,06,26,10,55,26.30
2021,06,26,10,56,26.40
2021,06,26,10,57,26.50
2021,06,26,10,58,26.60
2021,06,26,10,59,26.70
2021,06,26,11,00,26.70
2021,06,26,11,01,26.80
2021,06,26,11,02,26.80
2021,06,26,11,03,26.80
2021,06,26,11,04,26.90
2021,06,26,11,05,26.90
2021,06,26,11,06,26.90
2021,06,26,11,07,27.00
2021,06,26,11,08,27.00
2021,06,26,11,09,27.10
2021,06,26,11,10,27.10
2021,06,26,11,11,27.20
2021,06,26,11,12,27.20
2021,06,26,11,13,27.30
2021,06,26,11,14,27.40
2021,06,26,11,15,27.40
2021,06,26,11,16,27.50
2021,06,26,11,17,27.50
2021,06,26,11,18,27.60
2021,06,26,11,19,27.60
2021,06,26,11,20,27.70
2021,06,26,11,21,27.70
2021,06,26,11,22,27.80
2021,06,26,11,23,27.80
2021,06,26,11,24,27.90
2021,06,26,11,25,27.90
2021,06,26,11,26,28.00
2021,06,26,11,27,28.00
2021,06,26,11,28,28.00
2021,06,26,11,29,28.00
2021,06,26,11,30,28.00
2021,06,26,11,31,28.10
2021,06,26,11,32,28.10
2021,06,26,11,33,28.00
2021,06,26,11,34,28.00
2021,06,26,11,35,28.00
2021,06,26,11,36,28.00
2021,06,26,11,37,27.90
2021,06,26,11,38,27.90
2021,06,26,11,39,27.90
2021,06,26,11,40,27.90
2021,06,26,11,41,27.90
2021,06,26,11,42,27.90
2021,06,26,11,43,27.90
2021,06,26,11,44,27.90
2021,06,26,11,45,28.00
2021,06,26,11,46,28.00
2021,06,26,11,47,28.00
2021,06,26,11,48,27.90
2021,06,26,11,49,28.00
2021,06,26,11,50,28.00
2021,06,26,11,51,28.00
2021,06,26,11,52,28.00
2021,06,26,11,53,28.00
2021,06,26,11,54,28.10
2021,06,26,11,55,28.10
2021,06,26,11,56,28.10
2021,06,26,11,57,28.10
2021,06,26,11,58,28.10
2021,06,26,11,59,28.10
2021,06,26,12,00,28.10
2021,06,26,12,01,28.10
2021,06,26,12,02,28.10
2021,06,26,12,03,28.10
2021,06,26,12,04,28.10
2021,06,26,12,05,28.10
2021,06,26,12,06,28.00
2021,06,26,12,07,28.00
2021,06,26,12,08,28.00
2021,06,26,12,09,28.10
2021,06,26,12,10,28.00
2021,06,26,12,11,28.00
2021,06,26,12,12,28.10
2021,06,26,12,13,28.10
2021,06,26,12,14,28.10
2021,06,26,12,15,28.20
2021,06,26,12,16,28.20
2021,06,26,12,17,28.30
2021,06,26,12,18,28.30
2021,06,26,12,19,28.30
2021,06,26,12,20,28.20
2021,06,26,12,21,28.10
2021,06,26,12,22,28.10
2021,06,26,12,23,28.00
2021,06,26,12,24,28.00
2021,06,26,12,25,28.00
2021,06,26,12,26,28.00
2021,06,26,12,27,27.90
2021,06,26,12,28,27.90
2021,06,26,12,29,27.90
2021,06,26,12,30,27.90
2021,06,26,12,31,27.90
2021,06,26,12,32,27.90
2021,06,26,12,33,28.00
2021,06,26,12,34,28.00
2021,06,26,12,35,28.00
2021,06,26,12,36,28.10
2021,06,26,12,37,28.10
2021,06,26,12,38,28.20
2021,06,26,12,39,28.20
2021,06,26,12,40,28.20
2021,06,26,12,41,28.30
2021,06,26,12,42,28.30
2021,06,26,12,43,28.40
2021,06,26,12,44,28.40
2021,06,26,12,45,28.50
2021,06,26,12,46,28.50
2021,06,26,12,47,28.50
2021,06,26,12,48,28.50
2021,06,26,12,49,28.50
2021,06,26,12,50,28.60
2021,06,26,12,51,28.60
2021,06,26,12,52,28.60
2021,06,26,12,53,28.60
2021,06,26,12,54,28.70
2021,06,26,12,55,28.70
2021,06,26,12,56,28.70
2021,06,26,12,57,28.70
2021,06,26,12,58,28.80
2021,06,26,12,59,28.70
2021,06,26,13,00,28.70
2021,06,26,13,01,28.70
2021,06,26,13,02,28.70
2021,06,26,13,03,28.70
2021,06,26,13,04,28.70
2021,06,26,13,05,28.70
2021,06,26,13,06,28.80
2021,06,26,13,07,28.80
2021,06,26,13,08,28.80
2021,06,26,13,09,28.90
2021,06,26,13,10,28.90
2021,06,26,13,11,29.00
2021,06,26,13,12,29.10
2021,06,26,13,13,29.10
2021,06,26,13,14,29.20
2021,06,26,13,15,29.20
2021,06,26,13,16,29.10
2021,06,26,13,17,29.10
2021,06,26,13,18,29.00
2021,06,26,13,19,29.00
2021,06,26,13,20,29.00
2021,06,26,13,21,29.00
2021,06,26,13,22,29.00
2021,06,26,13,23,29.10
2021,06,26,13,24,29.10
2021,06,26,13,25,29.10
2021,06,26,13,26,29.10
2021,06,26,13,27,29.10
2021,06,26,13,28,29.10
2021,06,26,13,29,29.10
2021,06,26,13,30,29.10
2021,06,26,13,31,29.10
2021,06,26,13,32,29.00
2021,06,26,13,33,29.00
2021,06,26,13,34,29.10
2021,06,26,13,35,29.10
2021,06,26,13,36,29.10
2021,06,26,13,37,29.20
2021,06,26,13,38,29.20
2021,06,26,13,39,29.20
2021,06,26,13,40,29.30
2021,06,26,13,41,29.40
2021,06,26,13,42,29.40
2021,06,26,13,43,29.40
2021,06,26,13,44,29.50
2021,06,26,13,45,29.50
2021,06,26,13,46,29.60
2021,06,26,13,47,29.60
2021,06,26,13,48,29.60
2021,06,26,13,49,29.70
2021,06,26,13,50,29.70
2021,06,26,13,51,29.80
2021,06,26,13,52,29.80
2021,06,26,13,53,29.90
2021,06,26,13,54,29.90
2021,06,26,13,55,30.00
2021,06,26,13,56,30.00
2021,06,26,13,57,30.10
2021,06,26,13,58,30.00
2021,06,26,13,59,29.90
2021,06,26,14,00,29.80
2021,06,26,14,01,29.80
2021,06,26,14,02,29.70
2021,06,26,14,03,29.70
2021,06,26,14,04,29.60
2021,06,26,14,05,29.50
2021,06,26,14,06,29.50
2021,06,26,14,07,29.40
2021,06,26,14,08,29.40
2021,06,26,14,09,29.40
2021,06,26,14,10,29.30
2021,06,26,14,11,29.30
2021,06,26,14,12,29.30
2021,06,26,14,13,29.30
2021,06,26,14,14,29.30
2021,06,26,14,15,29.30
2021,06,26,14,16,29.30
2021,06,26,14,17,29.30
2021,06,26,14,18,29.40
2021,06,26,14,19,29.40
2021,06,26,14,20,29.40
2021,06,26,14,21,29.40
2021,06,26,14,22,29.40
2021,06,26,14,23,29.30
2021,06,26,14,24,29.30
2021,06,26,14,25,29.40
2021,06,26,14,26,29.40
2021,06,26,14,27,29.40
2021,06,26,14,28,29.40
2021,06,26,14,29,29.50
2021,06,26,14,30,29.50
2021,06,26,14,31,29.50
2021,06,26,14,32,29.50
2021,06,26,14,33,29.60
2021,06,26,14,34,29.60
2021,06,26,14,35,29.60
2021,06,26,14,36,29.60
2021,06,26,14,37,29.70
2021,06,26,14,38,29.70
2021,06,26,14,39,29.70
2021,06,26,14,40,29.70
2021,06,26,14,41,29.70
2021,06,26,14,42,29.70
2021,06,26,14,43,29.80
2021,06,26,14,44,29.80
2021,06,26,14,45,29.80
2021,06,26,14,46,29.80
2021,06,26,14,47,29.80
2021,06,26,14,48,29.80
2021,06,26,14,49,29.70
2021,06,26,14,50,29.70
2021,06,26,14,51,29.70
2021,06,26,14,52,29.70
2021,06,26,14,53,29.70
2021,06,26,14,54,29.70
2021,06,26,14,55,29.70
2021,06,26,14,56,29.70
2021,06,26,14,57,29.60
2021,06,26,14,58,29.60
2021,06,26,14,59,29.50
2021,06,26,15,00,29.40
2021,06,26,15,01,29.40
2021,06,26,15,02,29.40
2021,06,26,15,03,29.40
2021,06,26,15,04,29.30
2021,06,26,15,05,29.40
2021,06,26,15,06,29.40
2021,06,26,15,07,29.40
2021,06,26,15,08,29.50
2021,06,26,15,09,29.50
2021,06,26,15,10,29.60
2021,06,26,15,11,29.60
2021,06,26,15,12,29.70
2021,06,26,15,13,29.70
2021,06,26,15,14,29.70
2021,06,26,15,15,29.70
2021,06,26,15,16,29.80
2021,06,26,15,17,29.80
2021,06,26,15,18,29.90
2021,06,26,15,19,29.90
2021,06,26,15,20,30.00
2021,06,26,15,21,30.00
2021,06,26,15,22,30.00
2021,06,26,15,23,30.00
2021,06,26,15,24,30.00
2021,06,26,15,25,30.00
2021,06,26,15,26,30.00
2021,06,26,15,27,30.00
2021,06,26,15,28,30.00
2021,06,26,15,29,30.00
2021,06,26,15,30,30.00
2021,06,26,15,31,30.00
2021,06,26,15,32,30.10
2021,06,26,15,33,30.10
2021,06,26,15,34,30.00
2021,06,26,15,35,30.00
2021,06,26,15,36,30.00
2021,06,26,15,37,30.00
2021,06,26,15,38,30.10
2021,06,26,15,39,30.10
2021,06,26,15,40,30.10
2021,06,26,15,41,30.20
2021,06,26,15,42,30.30
2021,06,26,15,43,30.30
2021,06,26,15,44,30.40
2021,06,26,15,45,30.50
2021,06,26,15,46,30.50
2021,06,26,15,47,30.60
2021,06,26,15,48,30.60
2021,06,26,15,49,30.60
2021,06,26,15,50,30.50
2021,06,26,15,51,30.60
2021,06,26,15,52,30.60
2021,06,26,15,53,30.60
2021,06,26,15,54,30.60
2021,06,26,15,55,30.60
2021,06,26,15,56,30.60
2021,06,26,15,57,30.50
2021,06,26,15,58,30.50
2021,06,26,15,59,30.50
2021,06,26,16,00,30.50
2021,06,26,16,01,30.60
2021,06,26,16,02,30.60
2021,06,26,16,03,30.70
2021,06,26,16,04,30.70
2021,06,26,16,05,30.80
2021,06,26,16,06,30.80
2021,06,26,16,07,30.90
2021,06,26,16,08,30.90
2021,06,26,16,09,30.90
2021,06,26,16,10,30.90
2021,06,26,16,11,31.00
2021,06,26,16,12,31.00
2021,06,26,16,13,31.10
2021,06,26,16,14,31.10
2021,06,26,16,15,31.20
2021,06,26,16,16,31.20
2021,06,26,16,17,31.20
2021,06,26,16,18,31.30
2021,06,26,16,19,31.20
2021,06,26,16,20,31.20
2021,06,26,16,21,31.10
2021,06,26,16,22,31.10
2021,06,26,16,23,31.00
2021,06,26,16,24,30.90
2021,06,26,16,25,30.80
2021,06,26,16,26,30.80
2021,06,26,16,27,30.70
2021,06,26,16,28,30.70
2021,06,26,16,29,30.70
2021,06,26,16,30,30.70
2021,06,26,16,31,30.70
2021,06,26,16,32,30.70
2021,06,26,16,33,30.70
2021,06,26,16,34,30.80
2021,06,26,16,35,30.90
2021,06,26,16,36,30.90
2021,06,26,16,37,31.00
2021,06,26,16,38,31.10
2021,06,26,16,39,31.10
2021,06,26,16,40,31.10
2021,06,26,16,41,31.10
2021,06,26,16,42,31.10
2021,06,26,16,43,31.10
2021,06,26,16,44,31.20
2021,06,26,16,45,31.20
2021,06,26,16,46,31.20
2021,06,26,16,47,31.20
2021,06,26,16,48,31.20
2021,06,26,16,49,31.30
2021,06,26,16,50,31.30
2021,06,26,16,51,31.30
2021,06,26,16,52,31.20
2021,06,26,16,53,31.20
2021,06,26,16,54,31.10
2021,06,26,16,55,31.10
2021,06,26,16,56,31.10
2021,06,26,16,57,31.00
2021,06,26,16,58,31.00
2021,06,26,16,59,31.10
2021,06,26,17,00,31.10
2021,06,26,17,01,31.10
2021,06,26,17,02,31.10
2021,06,26,17,03,31.20
2021,06,26,17,04,31.20
2021,06,26,17,05,31.20
2021,06,26,17,06,31.20
2021,06,26,17,07,31.20
2021,06,26,17,08,31.20
2021,06,26,17,09,31.20
2021,06,26,17,10,31.20
2021,06,26,17,11,31.20
2021,06,26,17,12,31.20
2021,06,26,17,13,31.20
2021,06,26,17,14,31.20
2021,06,26,17,15,31.20
2021,06,26,17,16,31.20
2021,06,26,17,17,31.30
2021,06,26,17,18,31.30
2021,06,26,17,19,31.30